Météo par heure à Al Hufuf

Ce jour, 13 Mai, Jeudi

Heure Température Précipitation Vent Pression Humidité
00:00 +30°C° 0 mm 1 m/s 741 mmHg 21%
01:00 +30°C° 0 mm 1 m/s 741 mmHg 21%
02:00 +30°C° 0 mm 1 m/s 740 mmHg 20%
03:00 +30°C° 0 mm 1 m/s 740 mmHg 20%
04:00 +30°C° 0 mm 1 m/s 741 mmHg 19%
05:00 +31°C° 0 mm 2 m/s 741 mmHg 18%
06:00 +33°C° 0 mm 3 m/s 741 mmHg 16%
07:00 +36°C° 0 mm 2 m/s 742 mmHg 14%
08:00 +39°C° 0 mm 1 m/s 742 mmHg 11%
09:00 +38°C° 0 mm 0 m/s 742 mmHg 8%
10:00 +43°C° 0 mm 2 m/s 742 mmHg 8%
11:00 +45°C° 0 mm 3 m/s 741 mmHg 7%
12:00 +48°C° 0 mm 4 m/s 741 mmHg 6%
13:00 +48°C° 0 mm 5 m/s 740 mmHg 6%
14:00 +48°C° 0 mm 5 m/s 740 mmHg 7%
15:00 +48°C° 0 mm 5 m/s 739 mmHg 7%
16:00 +45°C° 0 mm 5 m/s 739 mmHg 9%
17:00 +42°C° 0 mm 5 m/s 739 mmHg 11%
18:00 +40°C° 0 mm 5 m/s 740 mmHg 13%
19:00 +37°C° 0 mm 5 m/s 740 mmHg 15%
20:00 +36°C° 0 mm 4 m/s 740 mmHg 17%
21:00 +35°C° 0 mm 4 m/s 740 mmHg 20%
22:00 +34°C° 0 mm 3 m/s 740 mmHg 20%
23:00 +32°C° 0 mm 2 m/s 740 mmHg 21%

Demain, 14 Mai, Vendredi

Heure Température Précipitation Vent Pression Humidité
00:00 +31°C° 0 mm 2 m/s 740 mmHg 21%
01:00 +31°C° 0 mm 1 m/s 740 mmHg 21%
02:00 +30°C° 0 mm 1 m/s 739 mmHg 22%
03:00 +28°C° 0 mm 0 m/s 739 mmHg 22%
04:00 +31°C° 0 mm 1 m/s 740 mmHg 20%
05:00 +32°C° 0 mm 2 m/s 740 mmHg 18%
06:00 +32°C° 0 mm 2 m/s 741 mmHg 16%
07:00 +36°C° 0 mm 2 m/s 741 mmHg 14%
08:00 +39°C° 0 mm 2 m/s 741 mmHg 11%
09:00 +41°C° 0 mm 1 m/s 741 mmHg 8%
10:00 +43°C° 0 mm 1 m/s 741 mmHg 8%
11:00 +44°C° 0 mm 1 m/s 741 mmHg 7%
12:00 +42°C° 0 mm 0 m/s 740 mmHg 6%
13:00 +45°C° 0 mm 1 m/s 740 mmHg 5%
14:00 +47°C° 0 mm 3 m/s 739 mmHg 5%
15:00 +48°C° 0 mm 4 m/s 739 mmHg 5%
16:00 +45°C° 0 mm 4 m/s 739 mmHg 7%
17:00 +43°C° 0 mm 4 m/s 739 mmHg 9%
18:00 +41°C° 0 mm 4 m/s 739 mmHg 10%
19:00 +38°C° 0 mm 4 m/s 739 mmHg 13%
20:00 +36°C° 0 mm 3 m/s 739 mmHg 16%
21:00 +34°C° 0 mm 2 m/s 739 mmHg 19%
22:00 +32°C° 0 mm 2 m/s 739 mmHg 20%
23:00 +32°C° 0 mm 1 m/s 739 mmHg 20%

Après-demain, 15 Mai, Samedi

Heure Température Précipitation Vent Pression Humidité
00:00 +31°C° 0 mm 1 m/s 738 mmHg 20%
01:00 +32°C° 0 mm 2 m/s 738 mmHg 19%
02:00 +33°C° 0 mm 3 m/s 738 mmHg 18%
03:00 +33°C° 0 mm 4 m/s 738 mmHg 17%
04:00 +34°C° 0 mm 4 m/s 739 mmHg 16%
05:00 +34°C° 0 mm 4 m/s 739 mmHg 15%
06:00 +34°C° 0 mm 3 m/s 739 mmHg 14%
07:00 +37°C° 0 mm 4 m/s 740 mmHg 12%
08:00 +40°C° 0 mm 4 m/s 740 mmHg 10%
09:00 +43°C° 0 mm 4 m/s 740 mmHg 8%
10:00 +45°C° 0 mm 4 m/s 740 mmHg 7%
11:00 +47°C° 0 mm 4 m/s 739 mmHg 6%
12:00 +48°C° 0 mm 5 m/s 739 mmHg 6%
13:00 +48°C° 0 mm 4 m/s 738 mmHg 6%
14:00 +49°C° 0 mm 4 m/s 738 mmHg 5%
15:00 +49°C° 0 mm 4 m/s 737 mmHg 5%
16:00 +46°C° 0 mm 5 m/s 738 mmHg 7%
17:00 +44°C° 0 mm 6 m/s 738 mmHg 9%
18:00 +40°C° 0 mm 6 m/s 738 mmHg 12%
19:00 +37°C° 0 mm 5 m/s 738 mmHg 15%
20:00 +35°C° 0 mm 4 m/s 739 mmHg 18%
21:00 +33°C° 0 mm 3 m/s 739 mmHg 21%
22:00 +33°C° 0 mm 3 m/s 739 mmHg 22%
23:00 +31°C° 0 mm 3 m/s 739 mmHg 23%

16 Mai, Dimanche

Heure Température Précipitation Vent Pression Humidité
00:00 +31°C° 0 mm 2 m/s 739 mmHg 24%
01:00 +30°C° 0 mm 2 m/s 739 mmHg 23%
02:00 +30°C° 0 mm 2 m/s 739 mmHg 22%
03:00 +29°C° 0 mm 1 m/s 739 mmHg 21%
04:00 +30°C° 0 mm 1 m/s 739 mmHg 20%
05:00 +31°C° 0 mm 2 m/s 740 mmHg 18%
06:00 +32°C° 0 mm 2 m/s 740 mmHg 16%
07:00 +36°C° 0 mm 2 m/s 740 mmHg 13%
08:00 +39°C° 0 mm 1 m/s 741 mmHg 10%
09:00 +42°C° 0 mm 1 m/s 741 mmHg 7%
10:00 +43°C° 0 mm 2 m/s 740 mmHg 7%
11:00 +45°C° 0 mm 2 m/s 740 mmHg 6%
12:00 +46°C° 0 mm 3 m/s 740 mmHg 5%
13:00 +47°C° 0 mm 3 m/s 739 mmHg 5%
14:00 +47°C° 0 mm 3 m/s 739 mmHg 5%
15:00 +48°C° 0 mm 4 m/s 738 mmHg 5%
16:00 +45°C° 0 mm 4 m/s 739 mmHg 7%
17:00 +43°C° 0 mm 5 m/s 739 mmHg 9%
18:00 +40°C° 0 mm 6 m/s 739 mmHg 11%
19:00 +37°C° 0 mm 5 m/s 739 mmHg 15%
20:00 +35°C° 0 mm 4 m/s 740 mmHg 18%
21:00 +33°C° 0 mm 4 m/s 740 mmHg 22%
22:00 +33°C° 0 mm 3 m/s 740 mmHg 23%
23:00 +31°C° 0 mm 3 m/s 740 mmHg 23%

17 Mai, Lundi

Heure Température Précipitation Vent Pression Humidité
00:00 +30°C° 0 mm 2 m/s 740 mmHg 24%
01:00 +30°C° 0 mm 2 m/s 740 mmHg 24%
02:00 +29°C° 0 mm 2 m/s 739 mmHg 24%
03:00 +29°C° 0 mm 1 m/s 739 mmHg 24%
04:00 +30°C° 0 mm 2 m/s 740 mmHg 22%
05:00 +31°C° 0 mm 2 m/s 740 mmHg 20%
06:00 +33°C° 0 mm 3 m/s 741 mmHg 17%
07:00 +36°C° 0 mm 2 m/s 741 mmHg 14%
08:00 +39°C° 0 mm 1 m/s 741 mmHg 11%
09:00 +42°C° 0 mm 1 m/s 741 mmHg 7%
10:00 +43°C° 0 mm 1 m/s 741 mmHg 6%
11:00 +45°C° 0 mm 2 m/s 741 mmHg 5%
12:00 +47°C° 0 mm 3 m/s 740 mmHg 4%
13:00 +47°C° 0 mm 3 m/s 740 mmHg 4%
14:00 +48°C° 0 mm 3 m/s 739 mmHg 4%
15:00 +48°C° 0 mm 3 m/s 739 mmHg 4%
16:00 +46°C° 0 mm 3 m/s 739 mmHg 5%
17:00 +44°C° 0 mm 4 m/s 739 mmHg 6%
18:00 +42°C° 0 mm 5 m/s 739 mmHg 7%
19:00 +38°C° 0 mm 4 m/s 740 mmHg 11%
20:00 +36°C° 0 mm 4 m/s 740 mmHg 14%
21:00 +34°C° 0 mm 3 m/s 740 mmHg 18%
22:00 +33°C° 0 mm 3 m/s 740 mmHg 20%
23:00 +31°C° 0 mm 2 m/s 740 mmHg 22%

18 Mai, Mardi

Heure Température Précipitation Vent Pression Humidité
00:00 +30°C° 0 mm 2 m/s 740 mmHg 24%
01:00 +30°C° 0 mm 1 m/s 739 mmHg 22%
02:00 +29°C° 0 mm 1 m/s 739 mmHg 21%
03:00 +27°C° 0 mm 0 m/s 739 mmHg 20%
04:00 +30°C° 0 mm 1 m/s 739 mmHg 18%
05:00 +31°C° 0 mm 1 m/s 739 mmHg 16%
06:00 +32°C° 0 mm 1 m/s 740 mmHg 15%
07:00 +36°C° 0 mm 2 m/s 740 mmHg 12%
08:00 +39°C° 0 mm 2 m/s 740 mmHg 9%
09:00 +41°C° 0 mm 2 m/s 741 mmHg 7%
10:00 +43°C° 0 mm 2 m/s 740 mmHg 6%
11:00 +45°C° 0 mm 1 m/s 740 mmHg 5%
12:00 +46°C° 0 mm 1 m/s 739 mmHg 4%
13:00 +47°C° 0 mm 1 m/s 739 mmHg 4%
14:00 +48°C° 0 mm 2 m/s 738 mmHg 4%
15:00 +50°C° 0 mm 3 m/s 738 mmHg 4%
16:00 +46°C° 0 mm 3 m/s 738 mmHg 5%
17:00 +44°C° 0 mm 4 m/s 738 mmHg 6%
18:00 +41°C° 0 mm 5 m/s 739 mmHg 8%
19:00 +38°C° 0 mm 4 m/s 739 mmHg 10%
20:00 +37°C° 0 mm 4 m/s 739 mmHg 12%
21:00 +35°C° 0 mm 3 m/s 739 mmHg 14%
22:00 +34°C° 0 mm 3 m/s 739 mmHg 15%
23:00 +34°C° 0 mm 2 m/s 738 mmHg 15%
Voir plus

Nous avons besoin de votre consentement

Meteoprog et ses fournisseurs de services peuvent stocker et accéder à des données personnelles telles que des cookies, des identifiants d'appareils ou d'autres technologies similaires sur votre appareil et traiter ces données pour personnaliser le contenu et les publicités, ainsi que pour fournir des fonctionnalités de médias sociaux et analyser le trafic.

  • Stocker et/ou accéder à des informations sur votre appareil

    Des cookies, des identifiants d'appareils ou d'autres informations peuvent être stockés ou accessibles sur votre appareil aux fins indiquées ci-dessus.

  • Annonces et contenus personnalisés, mesure des annonces et des contenus, connaissance de l'audience et développement de produits

    Les annonces et le contenu peuvent être personnalisés en fonction d'un profil. D'autres données peuvent être ajoutées pour mieux personnaliser les annonces et le contenu. Les performances des publicités et du contenu peuvent être mesurées. Il est possible d'obtenir des informations sur le public qui a vu les publicités et le contenu. Ces données peuvent être utilisées pour développer ou améliorer l'expérience de l'utilisateur, les systèmes et les logiciels.

En cliquant sur "J'accepte", vous autorisez l'utilisation de cookies, des identifiants d'appareils, des balises web ou d'autres technologies similaires. Vos paramètres peuvent être modifiés dans le navigateur de votre appareil.

Dans certains cas, des intérêts légitimes peuvent être invoqués plutôt qu'un consentement. Vous pouvez en savoir plus à ce sujet dans notre Politique de confidentialité et de cookies.